THORAD AGENA D DEB, 4764

Orbit data source: Space-Track

THORAD AGENA D DEB, 4764 is space debris in SSO originally from a launch on Wed, 08 Apr 1970 UTC launched from the Air Force Western Test Range (AFWTR). Debris objects in space refer to the collection of defunct objects orbiting the Earth. Examples of debris include non-operational satellites, rocket bodies, and fragments generated from explosions, collisions, or faulty payload assembly.

Loading next visibility...
Identifier
4764, 1970-025DJ
Orbit
SSO
Country
Flag of USUS
Related business
Manufacturer
Unknown
Mission
Spacecraft
Bus & Motor
Unknown
Mass
Unknown
Launch date (UTC)
1970-04-08 (56 years ago)
Launch vehicle
Unknown
Launch site
Air Force Western Test Range (AFWTR)
Object type
Payload
Rocket body
Debris
Shape & HBR
Unknown shape, 0.1 m
Radar Cross Section
Medium (>0.1 m² and <1 m²)

Expand to show TLE details & history
Last TLE update: 17 hours ago

TLE from 17 hours ago
0 THORAD AGENA D DEB
1 04764U 70025DJ  26255.49357511  .00008652  00000-0  24332-2 0  9997
2 04764  99.5080 334.6166 0026489 154.5612 205.6887 14.45942658839459
Epoch: 2026-09-12T11:50Z
TLE epoch observation values (Epoch: 2026-09-12T11:50:44.889Z)
Latitude
0.00004°
Longitude
165.42777°
Altitude
758.856 km
Speed
7.466 km/s
True Right ascension
22h 18m 27s
True Declination
0° 00' 00"
Sunlit
Object was in full shadow at epoch
Visualization orbit readout
Latitude
Unknown
Longitude
Unknown
Altitude
Unknown
Speed
Unknown
Apparent Right ascension
Unknown
Apparent Declination
Unknown
Sunlit
N/A
Visualization observer readout
Local Sidereal Time
21:20:41
Azimuth
Unknown
Elevation
Unknown
Doppler factor
Unknown
Orbital elements
Apogee altitude
754.94 km
Perigee altitude
717.251 km
Semi-major axis
7,114.233 km
Eccentricity
0.00265
Inclination
99.508°
RAAN
334.6166°
Arg. of periapsis
154.5612°
True anomaly
205.55751°
Mean anomaly
205.6887°
Eccentric anomaly
205.62307°
Mean motion
3.61702 °/min
Orbital period
99.53 mins
BSTAR
0.0024332
Loading maneuver chart data...
Computing Atmospheric mass density...
Loading historical data...
Loading historical data...
Loading historical data...
Loading historical data...
Loading historical data...
Loading historical data...
Loading historical data...

Documentation

Showing up to 5 results
|